DECAYED

SCOUT X-4 DEB, 40592 (Decayed)

Orbit data source: Space-Track

SCOUT X-4 DEB, 40592 was space debris in LEO originally from a launch on Tue, 25 Aug 1964 UTC launched from the Air Force Western Test Range (AFWTR). Debris objects in space refer to the collection of defunct objects orbiting the Earth. Examples of debris include non-operational satellites, rocket bodies, and fragments generated from explosions, collisions, or faulty payload assembly.

Loading next visibility...
Identifier
40592, 1964-051F
Orbit
Decayed
Last TLE update
7 months ago
Origin
Manufacturer
Unknown
Mission
Decayed spacecraft
Bus & Motor
Unknown
Mass
Unknown
Launch date (UTC)
1964-08-25 (61 years ago)
Launch vehicle
Unknown
Launch site
Air Force Western Test Range (AFWTR)
Object type
Payload
Rocket body
Debris
Shape & HBR
Unknown
Radar Cross Section
Small (<0.1 m²)

Expand to show TLE details & history

TLE from 7 months ago
0 SCOUT X-4 DEB
1 40592U 64051F   24352.60138592  .08450022  00000-0  59667-1 0  9991
2 40592  79.8265 199.9047 0012279  48.9665 311.2647 15.69206313499313
Epoch: 2024-12-17T14:25Z
TLE epoch observation values (Epoch: 2024-12-17T14:25:59.743Z)
Latitude
0.00003°
Longitude
-103.30183°
Altitude
358.776 km
Speed
7.697 km/s
True Right ascension
13h 19m 37s
True Declination
0° 00' 00"
Sunlit
Object was in daylight at epoch
Visualization orbit readout
Visualization observer readout
Orbital elements
Apogee altitude
366.483 km
Perigee altitude
349.94 km
Semi-major axis
6,736.349 km
Eccentricity
0.00123
Inclination
79.8265°
RAAN
199.9047°
Arg. of periapsis
48.9665°
True anomaly
Unknown
Mean anomaly
311.2647°
Eccentric anomaly
Unknown
Mean motion
3.9256 °/min
Orbital period
91.71 mins
BSTAR
0.059667
Loading maneuver chart data...
Loading SW <> Apogee altitude chart data...
Loading historical data...
Loading historical data...
Loading historical data...
Loading historical data...
Loading historical data...
Loading historical data...
Loading historical data...

SCOUT X-4 DEB Visibility forecast

Observer location: undefined°, undefined°

Span
Click to sort rows by Start time (UTC) header in descending order
Start Az.
Max El. time (UTC)
Max El. Az.
Max El.
End time (UTC)
End Az.
5 mins2025-07-03 14:23:37.503Z5.214° NNE2025-07-03 14:24:37.503Z147.862° SSE41.787°2025-07-03 14:28:37.503Z7.771° NNE
4 mins2025-07-03 16:04:37.503Z14.257° NNE2025-07-03 16:07:37.503Z221.494° SW44.433°2025-07-03 16:08:37.503Z14.869° NNE
4 mins2025-07-03 16:58:37.503Z18.302° NNE2025-07-03 16:59:37.503Z255.996° W43.504°2025-07-03 17:02:37.503Z17.043° NNE
4 mins2025-07-03 18:15:37.503Z29.932° NE2025-07-03 18:16:37.503Z286.704° WNW41.155°2025-07-03 18:19:37.503Z8.18° NNE
4 mins2025-07-03 18:23:37.503Z1.343° NNE2025-07-03 18:23:37.503Z1.343° NNE38.413°2025-07-03 18:27:37.503Z22.966° NE
4 mins2025-07-03 20:03:37.503Z61.446° ENE2025-07-03 20:04:37.503Z342.209° N38.177°2025-07-03 20:07:37.503Z51.278° ENE
4 mins2025-07-03 22:14:37.503Z78.267° E2025-07-03 22:17:37.503Z348.912° N36.416°2025-07-03 22:18:37.503Z86.948° E
4 mins2025-07-03 23:23:37.503Z106.552° ESE2025-07-03 23:27:37.503Z72.474° E40.161°2025-07-03 23:27:37.503Z72.474° E
4 mins2025-07-04 05:09:37.503Z333.194° NNW2025-07-04 05:12:37.503Z326.705° NNW36.958°2025-07-04 05:13:37.503Z208.265° SW
4 mins2025-07-04 06:48:37.503Z264.455° W2025-07-04 06:51:37.503Z343.799° N29.571°2025-07-04 06:52:37.503Z259.876° W
4 mins2025-07-04 12:09:37.503Z33.384° NE2025-07-04 12:12:37.503Z104.195° ESE37.966°2025-07-04 12:13:37.503Z0.421° NNE
4 mins2025-07-04 12:55:37.503Z120.757° SE2025-07-04 12:55:37.503Z120.757° SE40.12°2025-07-04 12:59:37.503Z3.448° NNE
|